This demonstration page uses our WeatherBlox Daily Observations layout. Learn more.

Left ArrowRight Arrow

Hourly Observations for July 13, 2022

Temp ( °F °C ) Dew Point ( °F °C ) Humidity (%) Winds ( mph kmh ) Pressure ( in mb ) Visibility ( mi km ) Precip ( " mm )
12:15 am 00:15 undefined 70 21 68 20 94 94 WSW 3 6 29.87 1012 N/A 0.00 0.00
12:35 am 00:35 undefined 70 21 68 20 94 94 WSW 3 6 29.87 1012 N/A 0.00 0.00
12:55 am 00:55 undefined 70 21 70 21 100 100 SSW 3 6 29.87 1012 N/A 0.00 0.00
1:15 am 01:15 undefined 70 21 70 21 100 100 SW 3 6 29.87 1012 N/A 0.00 0.00
1:35 am 01:35 undefined 70 21 70 21 100 100 W 5 7 29.87 1012 N/A 0.00 0.00
1:55 am 01:55 undefined 70 21 70 21 100 100 WSW 3 6 29.87 1012 N/A 0.00 0.00
2:15 am 02:15 undefined 70 21 70 21 100 100 Calm 29.88 1012 N/A 0.00 0.00
2:35 am 02:35 undefined 72 22 70 21 94 94 Calm 29.88 1012 N/A 0.00 0.00
2:55 am 02:55 undefined 70 21 70 21 100 100 Calm 29.89 1012 N/A 0.00 0.00
3:15 am 03:15 undefined 70 21 70 21 100 100 Calm 29.88 1012 N/A 0.00 0.00
3:35 am 03:35 undefined 68 20 68 20 100 100 WNW 3 6 29.88 1012 N/A 0.00 0.00
3:55 am 03:55 undefined 68 20 68 20 100 100 Calm 29.88 1012 N/A 0.00 0.00
4:15 am 04:15 undefined 68 20 68 20 100 100 WNW 3 6 29.88 1012 N/A 0.00 0.00
4:35 am 04:35 undefined 70 21 68 20 94 94 Calm 29.88 1012 N/A 0.00 0.00
4:55 am 04:55 undefined 70 21 68 20 94 94 Calm 29.88 1012 N/A 0.00 0.00
5:15 am 05:15 undefined 68 20 68 20 100 100 NW 5 7 29.88 1012 N/A 0.00 0.00
5:35 am 05:35 undefined 70 21 68 20 94 94 NNW 3 6 29.89 1012 N/A 0.00 0.00
5:55 am 05:55 undefined 70 21 68 20 94 94 NNW 5 7 29.89 1012 N/A 0.00 0.00
6:15 am 06:15 undefined 70 21 70 21 100 100 N 3 6 29.90 1013 N/A 0.00 0.00
6:35 am 06:35 undefined 70 21 68 20 94 94 S 3 6 29.91 1013 N/A 0.00 0.00
6:55 am 06:55 Sunny 70 21 68 20 94 94 Calm 29.92 1013 10 16 0.00 0.00
7:15 am 07:15 Sunny 72 22 70 21 94 94 SSW 3 6 29.93 1013 10 16 0.00 0.00
7:35 am 07:35 Sunny 72 22 70 21 94 94 Calm 29.93 1013 10 16 0.00 0.00
7:55 am 07:55 Sunny 73 23 70 21 89 89 Calm 29.94 1014 10 16 0.00 0.00
8:15 am 08:15 Sunny 75 24 72 22 89 89 W 3 6 29.94 1014 10 16 0.00 0.00
8:35 am 08:35 Sunny 77 25 72 22 83 83 Calm 29.94 1014 10 16 0.00 0.00
8:55 am 08:55 Sunny 77 25 72 22 83 83 WNW 5 7 29.95 1014 10 16 0.00 0.00
9:15 am 09:15 Sunny 79 26 72 22 79 79 WNW 9 15 29.94 1014 10 16 0.00 0.00
9:35 am 09:35 Sunny 79 26 72 22 79 79 WNW 7 11 29.95 1014 10 16 0.00 0.00
9:55 am 09:55 Sunny 81 27 72 22 74 74 WNW 6 9 29.95 1014 10 16 0.00 0.00
10:15 am 10:15 Sunny 81 27 73 23 79 79 W 6 9 29.95 1014 10 16 0.00 0.00
10:35 am 10:35 Sunny 81 27 72 22 74 74 W 7 11 29.95 1014 10 16 0.00 0.00
10:55 am 10:55 Sunny 82 28 72 22 70 70 NW 5 7 29.95 1014 10 16 0.00 0.00
11:15 am 11:15 Sunny 82 28 72 22 70 70 WNW 6 9 29.96 1015 10 16 0.00 0.00
11:35 am 11:35 Sunny 82 28 72 22 70 70 NW 8 13 29.96 1015 10 16 0.00 0.00
11:55 am 11:55 Partly Cloudy 82 28 72 22 70 70 WNW 10 17 29.95 1014 10 16 0.00 0.00
12:15 pm 12:15 Partly Cloudy 84 29 72 22 66 66 WNW 3 6 29.95 1014 N/A 0.00 0.00
12:35 pm 12:35 Partly Cloudy 86 30 72 22 62 62 WNW 7 11 29.95 1014 N/A 0.00 0.00
12:55 pm 12:55 Partly Cloudy 86 30 72 22 62 62 WNW 5 7 29.94 1014 N/A 0.00 0.00
1:15 pm 13:15 Partly Cloudy 86 30 70 21 59 59 W 8 13 29.94 1014 N/A 0.00 0.00
1:35 pm 13:35 Sunny 86 30 70 21 59 59 NNW 3 6 29.93 1013 10 16 0.00 0.00
1:55 pm 13:55 Mostly Cloudy 86 30 70 21 59 59 WNW 7 11 29.93 1013 10 16 0.00 0.00
2:15 pm 14:15 Partly Cloudy 88 31 70 21 55 55 WNW 9 15 29.92 1013 10 16 0.00 0.00
2:35 pm 14:35 Sunny 88 31 68 20 52 52 SW 5 7 29.92 1013 10 16 0.00 0.00
2:55 pm 14:55 Partly Cloudy 88 31 70 21 55 55 WNW 6 9 29.91 1013 10 16 0.00 0.00
3:15 pm 15:15 Partly Cloudy 90 32 70 21 52 52 W 7 11 29.91 1013 10 16 0.00 0.00
3:35 pm 15:35 Sunny 90 32 70 21 52 52 WSW 6 9 29.90 1012 10 16 0.00 0.00
3:55 pm 15:55 Partly Cloudy 90 32 68 20 49 49 W 6 9 29.89 1012 N/A 0.00 0.00
4:15 pm 16:15 Sunny 90 32 68 20 49 49 SW 7 11 29.89 1012 N/A 0.00 0.00
4:35 pm 16:35 Sunny 90 32 68 20 49 49 SW 7 11 29.89 1012 10 16 0.00 0.00
4:55 pm 16:55 Sunny 90 32 68 20 49 49 WSW 7 11 29.88 1012 N/A 0.00 0.00
5:15 pm 17:15 Sunny 90 32 66 19 46 46 SW 6 9 29.89 1012 N/A 0.00 0.00
5:35 pm 17:35 Sunny 90 32 64 18 43 43 SSW 7 11 29.89 1012 N/A 0.00 0.00
5:55 pm 17:55 Sunny 90 32 68 20 49 49 SW 6 9 29.88 1012 N/A 0.00 0.00
6:15 pm 18:15 Sunny 90 32 66 19 46 46 SSW 6 9 29.89 1012 10 16 0.00 0.00
6:35 pm 18:35 Sunny 88 31 68 20 52 52 SW 5 7 29.89 1012 N/A 0.00 0.00
6:55 pm 18:55 Partly Cloudy 88 31 68 20 52 52 WSW 3 6 29.89 1012 N/A 0.00 0.00
7:15 pm 19:15 Partly Cloudy 88 31 68 20 52 52 WSW 3 6 29.90 1012 N/A 0.00 0.00
7:35 pm 19:35 Partly Cloudy 86 30 68 20 55 55 WSW 3 6 29.90 1012 N/A 0.00 0.00
7:55 pm 19:55 Mostly Cloudy 86 30 68 20 55 55 Calm 29.90 1012 N/A 0.00 0.00
8:15 pm 20:15 Partly Cloudy 84 29 70 21 62 62 W 3 6 29.90 1012 N/A 0.00 0.00
8:35 pm 20:35 Mostly Cloudy 81 27 70 21 70 70 NNW 3 6 29.91 1013 N/A 0.00 0.00
8:55 pm 20:55 Partly Cloudy 81 27 70 21 70 70 Calm 29.91 1013 N/A 0.00 0.00
9:15 pm 21:15 Partly Cloudy 81 27 70 21 70 70 WSW 6 9 29.91 1013 N/A 0.00 0.00
9:35 pm 21:35 Mostly Cloudy 79 26 70 21 74 74 WNW 5 7 29.91 1013 N/A 0.00 0.00
9:55 pm 21:55 Cloudy 79 26 70 21 74 74 W 5 7 29.91 1013 N/A 0.00 0.00
10:15 pm 22:15 Mostly Cloudy 79 26 70 21 74 74 SSW 6 9 29.92 1013 10 16 0.00 0.00
10:35 pm 22:35 Partly Cloudy 77 25 68 20 74 74 SSW 5 7 29.93 1014 10 16 0.00 0.00
10:55 pm 22:55 Mostly Cloudy 77 25 68 20 74 74 SSW 8 13 29.94 1014 10 16 0.00 0.00
11:15 pm 23:15 Cloudy 75 24 68 20 78 78 SW 5 7 29.94 1014 10 16 0.00 0.00
11:35 pm 23:35 Mostly Cloudy 73 23 68 20 83 83 WSW 6 9 29.94 1014 10 16 0.00 0.00
11:55 pm 23:55 Mostly Cloudy 72 22 70 21 94 94 Calm 29.95 1014 10 16 0.00 0.00

Powered by AerisWeather